Ouarzazate, Morocco

6:22 PM WET on May 26, 2017 (GMT +0000)
Ouarzazate

Weather History for GMMZ - January, 2013

Change the Weather History Date:

Wednesday, January 2, 2013

  Actual Average Record
Temperature  
Mean Temperature 46 °F -  
Max Temperature 61 °F 62 °F - ()
Min Temperature 31 °F 35 °F - ()
Degree Days  
Heating Degree Days 19    
Moisture  
Dew Point 20 °F    
Average Humidity 33    
Maximum Humidity 60    
Minimum Humidity 14    
Precipitation  
Precipitation 0.00 in 0.02 in - ()
Sea Level Pressure  
Sea Level Pressure 30.20 in    
Wind  
Wind Speed 2 mph ()    
Max Wind Speed 5 mph    
Max Gust Speed -    
Visibility 9.3 miles    
Events      
T = Trace of Precipitation, MM = Missing Value Source: Averaged Metar Reports

Daily Weather History Graph

Daily Weather History Graph

Search for Another Location

Airport or City:

Trip Planner

Search our weather history database for the weather conditions in past years. The results will help you decide how hot, cold, wet, or windy it might be!

Date:

Astronomy

Jan. 02, 2013 Rise Set
Actual Time 7:25 AM WET 5:37 PM WET
Civil Twilight 6:59 AM WET 6:04 PM WET
Nautical Twilight 6:29 AM WET 6:34 PM WET
Astronomical Twilight 5:59 AM WET 7:03 PM WET
Moon 10:33 PM WET (1/2) 10:21 AM WET (1/2)
Length of Visible Light 11h 04m
Length of Day
10h 11m
Waning Gibbous, 77% of the Moon is Illuminated
Jan 2
Waning Gibbous
Jan 5
Last Quarter
Jan 11
New
Jan 18
First Quarter
Jan 27
Full

Hourly Weather History & Observations

Time (WET) Temp. Windchill Dew Point Humidity Pressure Visibility Wind Dir Wind Speed Gust Speed Precip Events Conditions
12:00 AM 47 °F - 24 °F 28%  in 12 mi WNW 4.6 mph - -   Scattered Clouds
12:00 AM 46.4 °F 44.3 °F 24.8 °F 43% 30.21 in 6.2 mi WNW 4.6 mph - N/A   Partly Cloudy
1:00 AM 44.6 °F - 15.8 °F 31% 30.21 in 6.2 mi North 2.3 mph - N/A   Partly Cloudy
3:00 AM 40 °F - 19 °F 29%  in 12 mi Calm Calm - -   Scattered Clouds
3:00 AM 41.0 °F - 19.4 °F 42% 30.21 in 6.2 mi Calm Calm - N/A   Partly Cloudy
4:00 AM 37.4 °F 33.8 °F 19.4 °F 48% 30.21 in 6.2 mi West 4.6 mph - N/A   Partly Cloudy
5:00 AM 37.4 °F - 19.4 °F 48% 30.21 in 6.2 mi Calm Calm - N/A   Partly Cloudy
6:00 AM 32 °F - 19 °F 45%  in 12 mi NW 2.3 mph - -   Scattered Clouds
6:00 AM 32.0 °F - 19.4 °F 60% 30.21 in 6.2 mi NW 2.3 mph - N/A   Partly Cloudy
7:00 AM 35.6 °F - 21.2 °F 56% 30.21 in 6.2 mi SW 2.3 mph - N/A   Scattered Clouds
8:00 AM 32.0 °F - 19.4 °F 60% 30.24 in - Calm Calm - N/A   Clear
9:00 AM 37 °F - 18 °F 32%  in 12 mi Calm Calm - -   Clear
9:00 AM 37.4 °F - 17.6 °F 45% 30.27 in - Calm Calm - N/A   Clear
10:00 AM 42.8 °F - 15.8 °F 34% 30.27 in - Calm Calm - N/A   Clear
11:00 AM 46.4 °F - 17.6 °F 32% 30.27 in - Variable 1.2 mph - N/A   Clear
12:00 PM 51 °F - 18 °F 16%  in 12 mi Calm Calm - -   Clear
12:00 PM 51.8 °F - 19.4 °F 28% 30.24 in - Calm Calm - N/A   Clear
1:00 PM 55.4 °F - 21.2 °F 26% 30.21 in - Calm Calm - N/A   Clear
2:00 PM 57.2 °F - 23.0 °F 27% 30.18 in - Variable 2.3 mph - N/A   Clear
3:00 PM 58 °F - 22 °F 14%  in 12 mi NW 1.2 mph - -   Clear
3:00 PM 59.0 °F - 23.0 °F 25% 30.15 in - Variable 1.2 mph - N/A   Clear
4:00 PM 60.8 °F - 23.0 °F 23% 30.15 in - Variable 2.3 mph - N/A   Clear
5:00 PM 60.8 °F - 23.0 °F 23% 30.12 in - North - - N/A   Clear
6:00 PM 58 °F - 23 °F 14%  in 12 mi SE 2.3 mph - -   Clear
6:00 PM 59.0 °F - 23.0 °F 25% 30.15 in - Variable 2.3 mph - N/A   Clear
7:00 PM 53.6 °F - 23.0 °F 30% 30.15 in - Variable 1.2 mph - N/A   Clear
8:00 PM 51.8 °F - 21.2 °F 30% 30.18 in - Variable 2.3 mph - N/A   Clear
9:00 PM 47 °F - 18 °F 19%  in 12 mi NW 3.5 mph - -   Clear
9:00 PM 46.4 °F 45.2 °F 17.6 °F 32% 30.18 in - Variable 3.5 mph - N/A   Clear
10:00 PM 48.2 °F - 19.4 °F 32% 30.21 in - Variable 1.2 mph - N/A   Clear
11:00 PM 46.4 °F - 17.6 °F 32% 30.21 in - Variable 1.2 mph - N/A   Clear